Simultaneous Nadir Overpasses (SNOs) Predictions

Prediction of SNOs between AQUA and GOES-15 Satellite Orbit:

Table of predicted SNOs for the next 14.0 days since TLE Epoch: 8/14/2015
Index Date Time (AQUA) AQUA Lat,Lon GOES-15 Lat,Lon Distance(km) Time Diff (sec)
1 08/14/2015 10:26:03 -0.72,-132.70 -0.28,-134.80 239.62 80
2 08/14/2015 22:47:28 -0.35,-137.90 0.29,-134.83 348.84 80
3 08/16/2015 22:35:16 0.27,-134.94 0.29,-134.77 18.80 80
4 08/18/2015 22:23:03 0.84,-131.97 0.29,-134.71 311.05 80
5 08/19/2015 10:44:19 0.20,-137.14 -0.30,-134.66 281.01 80
6 08/21/2015 10:32:06 -0.38,-134.17 -0.30,-134.59 47.94 80
7 08/23/2015 10:19:54 -1.02,-131.21 -0.30,-134.52 376.10 80
8 08/23/2015 22:41:17 -0.08,-136.41 0.31,-134.53 212.74 80
9 08/25/2015 22:29:05 0.52,-133.44 0.31,-134.45 114.51 80
10 08/26/2015 10:50:19 0.60,-138.59 -0.32,-134.39 478.29 80
11 08/27/2015 22:16:52 1.12,-130.48 0.32,-134.36 441.14 80




NCC Satellite Simultaneous Nadir Overpasses (SNOs) Prediction Service
